Погода в Ишварди

Бангладеш     24°07′47″N   89°03′50″E
темп.,
°C
ветер,
м/с
пор.,
м/с
влажн.,
%
обл.,
%
осадки,
мм/ч
давл.,
гПа
погр.,
м
25 мая, ср
ср2500:00+29ююз586580 0.6 1005389
03:00+28юз246480 0.3 1003121
06:00+28ююв236821 1.3 1005109
09:00+32ю2252100 0.0 1005890
12:00+35юв324014 0.0 10042097
15:00+35юв324281 0.1 1001986
18:00+29всв46626 0.8 1002209
21:00+28ююв587026 0.3 1004389
26 мая, чт
чт2600:00+28юв4774100 0.3 1004313
03:00+28ю24741 0.0 1003164
06:00+27ююв37790 0.0 1004287
09:00+33ююз44520 0.0 1004994
12:00+37ююз45340 0.0 10022883
15:00+39ююз452674 0.0 9992972
18:00+34в113811 0.1 999117
21:00+30в595811 0.0 1001225
27 мая, пт
пт2700:00+29ююв34585 0.0 100183
03:00+28ю610810 0.0 1000424
06:00+27ююв59875 0.0 1000375
09:00+33ю445251 0.0 10021028
12:00+37ююв44395 0.0 10002069
15:00+32ююз8758100 3.1 998963
18:00+29юв7116488 8.4 997375
21:00+27в5970100 0.0 1000405
28 мая, сб
сб2800:00+27юв310745 0.0 1000353
03:00+26вюв388415 0.0 998277
06:00+26вюв478996 0.0 999268
09:00+30юв4575100 0.0 1001706
12:00+33юв445771 0.0 10011166
15:00+36юв44445 0.0 9971426
18:00+35вюв34474 0.0 997216
21:00+27ю71373100 1.8 1000388
29 мая, вс
вс2900:00+27зсз367497 1.9 1000199
03:00+26юв3674100 0.1 1000228
06:00+26юв247725 0.3 1001180
09:00+32юв33525 0.0 1002744
12:00+36вюв34436 0.0 10011758
15:00+39юв333675 0.0 9982761
18:00+34всв795311 0.0 998530
21:00+29ююз6973100 6.4 1000371